1997,10,1,0,5,-14.16,-.21,-11.93,.31,24.13,74.70,13.41
1997,10,1,0,10,-13.13,-.24,-11.97,.29,24.08,75.10,13.41
1997,10,1,0,15,-14.19,-.17,-12.06,.13,24.07,75.30,13.41
1997,10,1,0,20,-13.93,-.17,-12.90,-.05,24.09,75.20,13.41
1997,10,1,0,25,-14.47,-.09,-12.00,-.05,24.06,75.30,13.41
1997,10,1,0,30,-13.89,-.15,-11.80,-.11,24.05,75.60,13.41
1997,10,1,0,35,-13.54,-.06,-12.26,-.26,24.06,75.60,13.41
1997,10,1,0,40,-13.90,-.16,-11.89,-.10,24.02,75.80,13.42
1997,10,1,0,45,-13.09,-.12,-11.22,-.16,24.00,75.70,13.42
1997,10,1,0,50,-13.18,-.07,-11.28,-.15,23.93,76.20,13.42
1997,10,1,0,55,-14.32,-.06,-12.54,-.01,23.77,77.00,13.42
1997,10,1,1,0,-14.12,-.12,-12.87,.13,23.65,77.20,13.42
1997,10,1,1,5,-14.73,-.05,-12.17,.10,23.57,77.40,13.42
1997,10,1,1,10,-13.20,-.09,-11.80,.11,23.51,77.50,13.42
1997,10,1,1,15,-14.33,-.10,-11.17,.08,23.46,77.70,13.42
1997,10,1,1,20,-12.42,-.03,-10.69,-.01,23.43,77.90,13.43
1997,10,1,1,25,-11.99,-.02,-10.16,-.02,23.38,77.80,13.43
1997,10,1,1,30,-12.30,-.02,-9.79,-.03,23.30,78.00,13.43
1997,10,1,1,35,-12.83,-.02,-9.58,-.04,23.19,78.00,13.43
1997,10,1,1,40,-11.14,.01,-9.64,-.12,23.07,78.20,13.44
1997,10,1,1,45,-11.53,-.04,-9.58,-.20,22.94,78.10,13.44
1997,10,1,1,50,-12.23,.00,-9.61,-.39,22.82,79.40,13.44
1997,10,1,1,55,-12.17,-.01,-9.88,-.45,22.76,80.10,13.44
1997,10,1,2,0,-12.66,-.01,-9.87,-.53,22.74,80.10,13.45
1997,10,1,2,5,-12.33,.01,-10.22,-.54,22.71,80.30,13.45
1997,10,1,2,10,-13.01,-.01,-10.58,-.52,22.61,80.10,13.45
1997,10,1,2,15,-12.80,-.01,-10.81,-.42,22.43,81.40,13.43
1997,10,1,2,20,-13.60,-.02,-10.86,-.31,22.27,82.10,13.45
1997,10,1,2,25,-12.98,-.01,-10.93,-.25,22.15,83.00,13.45
1997,10,1,2,30,-13.29,-.02,-11.40,-.06,21.90,83.30,13.45
1997,10,1,2,35,-14.82,-.03,-11.99,.11,21.66,84.20,13.46
1997,10,1,2,40,-13.86,.01,-11.39,.09,21.56,85.00,13.46
1997,10,1,2,45,-14.28,-.01,-11.40,.07,21.51,85.30,13.46
1997,10,1,2,50,-13.74,.00,-11.42,-.02,21.59,85.50,13.46
1997,10,1,2,55,-13.59,.01,-11.12,-.09,21.64,85.20,13.47
1997,10,1,3,0,-13.90,.00,-11.24,-.14,21.65,85.40,13.47
1997,10,1,3,5,-12.29,.00,-10.79,-.18,21.61,85.20,13.47
1997,10,1,3,10,-12.28,.00,-10.79,-.13,21.44,86.10,13.47
1997,10,1,3,15,-13.51,0.00,-11.09,-.02,21.30,87.60,13.47
1997,10,1,3,20,-13.32,.01,-10.59,-.07,21.27,88.00,13.47
1997,10,1,3,25,-11.88,-.00,-10.66,-.15,21.28,88.40,13.47
1997,10,1,3,30,-11.65,.00,-10.31,-.28,21.29,88.60,13.48
1997,10,1,3,35,-12.05,-.01,-10.41,-.33,21.28,88.60,13.48
1997,10,1,3,40,-13.15,.00,-10.89,-.34,21.26,88.70,13.48
1997,10,1,3,45,-12.60,-.01,-11.38,-.26,21.21,89.20,13.48
1997,10,1,3,50,-14.01,-.03,-11.83,-.20,21.16,89.50,13.48
1997,10,1,3,55,-13.69,-.01,-11.08,-.25,21.12,89.90,13.48
1997,10,1,4,0,-12.83,-.01,-10.80,-.28,21.11,89.90,13.48
1997,10,1,4,5,-13.58,-.01,-11.47,-.27,21.08,90.10,13.49
1997,10,1,4,10,-14.98,-.02,-11.59,-.18,21.02,90.70,13.49
1997,10,1,4,15,-14.26,-.00,-11.51,-.13,20.92,91.10,13.49
1997,10,1,4,20,-13.44,-.01,-11.20,-.08,20.76,91.50,13.49
1997,10,1,4,25,-13.94,-.03,-11.29,-.08,20.71,92.30,13.49
1997,10,1,4,30,-13.96,-.02,-11.69,-.11,20.68,92.50,13.49
1997,10,1,4,35,-14.42,-.04,-12.28,-.05,20.62,92.60,13.49
1997,10,1,4,40,-13.80,-.02,-12.06,-.10,20.58,92.60,13.49
1997,10,1,4,45,-13.12,-.02,-10.75,-.26,20.57,92.70,13.50
1997,10,1,4,50,-12.39,-.03,-10.66,-.31,20.55,92.90,13.50
1997,10,1,4,55,-12.44,-.02,-10.53,-.44,20.56,92.60,13.50
1997,10,1,5,0,-13.08,-.03,-10.90,-.45,20.56,92.30,13.50
1997,10,1,5,5,-12.22,-.02,-10.30,-.49,20.57,92.50,13.50
1997,10,1,5,10,-12.80,-.04,-10.79,-.49,20.57,92.30,13.50
1997,10,1,5,15,-13.11,-.04,-11.13,-.42,20.53,92.40,13.50
1997,10,1,5,20,-13.13,-.04,-10.87,-.44,20.51,92.60,13.50
1997,10,1,5,25,-12.93,-.03,-11.29,-.36,20.48,92.70,13.51
1997,10,1,5,30,-13.97,-.03,-11.61,-.25,20.41,92.80,13.51
1997,10,1,5,35,-13.66,-.05,-11.72,-.17,20.34,92.80,13.51
1997,10,1,5,40,-13.48,-.05,-11.48,-.15,20.31,93.10,13.51
1997,10,1,5,45,-13.12,-.04,-11.17,-.12,20.23,92.80,13.49
1997,10,1,5,50,-13.69,-.04,-11.03,-.11,20.12,93.10,13.51
1997,10,1,5,55,-13.86,-.04,-11.35,-.11,20.06,93.20,13.51
1997,10,1,6,0,-13.20,-.03,-10.99,-.09,20.01,93.10,13.51
1997,10,1,6,5,-13.10,-.04,-11.02,-.08,19.96,93.20,13.51
1997,10,1,6,10,-13.66,-.04,-11.86,-.03,19.87,93.30,13.52
1997,10,1,6,15,-13.58,-.04,-12.00,-.04,19.83,93.70,13.52
1997,10,1,6,20,-14.07,-.03,-12.09,-.07,19.80,94.10,13.52
1997,10,1,6,25,-13.41,-.03,-10.97,-.16,19.80,94.30,13.52
1997,10,1,6,30,-11.12,-.04,-9.22,-.27,19.80,94.30,13.52
1997,10,1,6,35,-8.85,-.04,-7.63,-.30,19.78,94.20,13.52
1997,10,1,6,40,-6.89,-.04,-4.82,-.47,19.76,94.00,13.52
1997,10,1,6,45,-2.05,-.04,-.98,-.69,19.79,94.00,13.52
1997,10,1,6,50,2.83,-.03,4.58,-1.76,19.80,93.90,13.52
1997,10,1,6,55,14.42,-.04,11.07,-8.39,19.82,94.30,13.53
1997,10,1,7,0,26.85,-.05,18.35,-12.54,19.92,94.10,13.52
1997,10,1,7,5,39.27,-.09,25.24,-16.21,20.06,93.70,13.52
1997,10,1,7,10,51.83,-.03,31.47,-18.80,20.24,93.00,13.52
1997,10,1,7,15,65.39,-.09,39.67,-20.48,20.40,92.20,13.52
1997,10,1,7,20,80.10,-.06,47.91,-22.26,20.60,91.80,13.51
1997,10,1,7,25,93.40,-.07,54.66,-24.61,20.86,90.80,13.51
1997,10,1,7,30,106.10,-.04,59.81,-26.31,21.15,89.80,13.50
1997,10,1,7,35,125.60,-.02,65.73,-28.07,21.39,89.00,13.50
1997,10,1,7,40,143.50,-.04,70.70,-29.67,21.59,88.50,13.49
1997,10,1,7,45,161.10,-.03,79.10,-31.39,21.91,87.90,13.48
1997,10,1,7,50,184.60,-.01,87.50,-33.97,22.32,86.60,13.48
1997,10,1,7,55,203.80,-.01,88.80,-36.34,22.69,85.40,13.47
1997,10,1,8,0,222.60,-.00,91.70,-38.43,23.13,84.60,13.46
1997,10,1,8,5,214.20,.02,98.70,-39.32,23.60,83.30,13.45
1997,10,1,8,10,245.70,.01,106.70,-36.27,23.91,81.80,13.44
1997,10,1,8,15,271.50,.03,114.50,-37.85,24.27,80.70,13.43
1997,10,1,8,20,289.00,-.01,125.90,-38.09,24.70,79.30,13.42
1997,10,1,8,25,311.40,-.02,126.50,-40.00,25.10,77.80,13.41
1997,10,1,8,30,332.40,-.11,130.80,-40.78,25.48,76.50,13.39
1997,10,1,8,35,355.40,-.09,139.20,-41.10,25.84,75.70,13.38
1997,10,1,8,40,360.00,-.18,130.60,-41.13,26.14,73.90,13.37
1997,10,1,8,45,382.50,-.30,127.40,-42.31,26.54,72.40,13.36
1997,10,1,8,50,393.50,-.34,148.00,-43.01,27.04,70.20,13.35
1997,10,1,8,55,418.50,-.36,143.00,-41.49,27.34,68.52,13.34
1997,10,1,9,0,447.30,-.36,151.80,-40.77,27.63,66.02,13.32
1997,10,1,9,5,453.40,-.38,149.80,-39.62,27.85,66.69,13.31
1997,10,1,9,10,467.90,-.36,192.70,-39.73,28.17,66.23,13.30
1997,10,1,9,15,487.30,-.34,198.20,-38.28,28.51,66.02,13.29
1997,10,1,9,20,238.40,-.34,212.20,-17.11,28.72,65.64,13.28
1997,10,1,9,25,280.90,-.27,281.40,-9.96,28.54,66.42,13.28
1997,10,1,9,30,618.30,-.26,291.10,-34.63,28.71,66.54,13.28
1997,10,1,9,35,576.50,-.29,199.60,-38.88,29.18,65.56,13.27
1997,10,1,9,40,553.00,-.27,169.30,-37.08,29.36,65.35,13.27
1997,10,1,9,45,581.00,-.29,202.20,-35.37,29.26,66.05,13.26
1997,10,1,9,50,489.30,-.26,257.40,-26.45,29.44,65.71,13.25
1997,10,1,9,55,408.90,-.26,344.20,-15.54,29.22,66.61,13.24
1997,10,1,10,0,381.60,-.24,316.90,-10.98,29.11,68.12,13.24
1997,10,1,10,5,352.60,-.18,306.20,-7.76,28.94,69.34,13.24
1997,10,1,10,10,186.90,-.21,192.50,.73,28.94,69.39,13.24
1997,10,1,10,15,191.90,-.18,198.70,1.99,28.78,68.96,13.24
1997,10,1,10,20,631.20,-.20,382.80,-18.09,28.98,68.17,13.25
1997,10,1,10,25,741.00,-.24,434.80,-28.86,29.71,66.03,13.24
1997,10,1,10,30,778.00,-.21,300.80,-33.90,29.91,65.97,13.23
1997,10,1,10,35,728.00,-.20,308.40,-34.42,30.35,64.80,13.22
1997,10,1,10,40,874.00,-.19,364.90,-36.08,30.66,63.75,13.21
1997,10,1,10,45,446.20,-.17,355.10,-16.78,30.84,63.23,13.20
1997,10,1,10,50,491.00,-.18,318.20,-16.54,30.52,63.97,13.19
1997,10,1,10,55,259.80,-.11,266.20,-.20,30.34,64.40,13.19
1997,10,1,11,0,517.00,-.08,368.70,-5.75,30.31,64.88,13.19
1997,10,1,11,5,884.00,-.11,421.60,-27.87,30.60,64.57,13.19
1997,10,1,11,10,290.90,-.12,260.90,-6.07,30.61,64.25,13.19
1997,10,1,11,15,226.50,-.06,233.20,1.23,30.53,64.59,13.19
1997,10,1,11,20,555.20,-.05,346.60,-9.17,30.30,65.16,13.19
1997,10,1,11,25,941.00,-.10,399.50,-27.40,30.53,64.21,13.19
1997,10,1,11,30,372.50,-.12,352.20,-8.86,30.68,63.61,13.18
1997,10,1,11,35,539.80,-.08,351.40,-13.30,30.50,64.48,13.18
1997,10,1,11,40,340.40,-.05,346.60,-1.63,30.76,63.24,13.18
1997,10,1,11,45,665.50,-.05,426.40,-13.29,30.76,61.62,13.18
1997,10,1,11,50,823.00,-.04,333.10,-22.01,31.01,61.61,13.18
1997,10,1,11,55,760.00,-.08,259.90,-21.78,30.99,61.07,13.17
1997,10,1,12,0,699.10,-.04,288.70,-15.64,31.34,59.25,13.17
1997,10,1,12,5,956.00,-.08,299.50,-23.53,31.94,57.23,13.16
1997,10,1,12,10,551.00,-.09,275.70,-15.62,32.56,55.28,13.16
1997,10,1,12,15,427.90,-.01,282.10,-11.18,32.36,55.88,13.15
1997,10,1,12,20,412.60,.03,225.80,-7.46,31.88,55.35,13.15
1997,10,1,12,25,992.00,-.02,319.00,-21.14,31.83,56.78,13.15
1997,10,1,12,30,787.00,-.06,334.80,-22.83,32.85,53.59,13.15
1997,10,1,12,35,624.10,-.08,309.30,-18.10,32.21,54.36,13.14
1997,10,1,12,40,1040.00,-.13,363.40,-22.27,32.24,54.49,13.14
1997,10,1,12,45,875.00,-.12,361.00,-21.63,32.75,53.83,13.14
1997,10,1,12,50,863.00,-.16,406.00,-21.18,32.78,53.13,13.13
1997,10,1,12,55,753.00,-.10,377.20,-17.99,33.07,52.51,13.12
1997,10,1,13,0,642.50,-.16,296.50,-14.44,32.51,54.35,13.12
1997,10,1,13,5,161.50,-.19,167.50,5.13,32.21,55.58,13.12
1997,10,1,13,10,286.90,-.18,211.00,3.44,32.32,54.63,13.12
1997,10,1,13,15,397.70,-.26,257.20,-1.23,32.27,56.27,13.13
1997,10,1,13,20,211.00,-.17,215.20,6.89,31.63,58.09,13.13
1997,10,1,13,25,253.30,-.09,258.50,4.44,31.37,57.76,13.14
1997,10,1,13,30,384.70,-.17,302.80,-5.76,31.22,56.45,13.15
1997,10,1,13,35,494.30,-.22,279.20,-9.75,31.42,55.91,13.15
1997,10,1,13,40,872.00,-.19,228.30,-20.76,31.94,54.24,13.15
1997,10,1,13,45,867.00,-.18,226.10,-22.80,32.26,52.87,13.15
1997,10,1,13,50,880.00,-.20,253.50,-23.02,32.57,52.04,13.15
1997,10,1,13,55,708.00,-.15,239.50,-19.99,32.71,52.00,13.14
1997,10,1,14,0,609.10,-.15,191.20,-13.33,32.98,51.01,13.14
1997,10,1,14,5,794.00,-.08,179.10,-17.12,32.77,50.14,13.14
1997,10,1,14,10,780.00,-.14,190.60,-17.65,32.82,50.46,13.14
1997,10,1,14,15,755.00,-.15,182.40,-20.85,33.10,49.41,13.14
1997,10,1,14,20,763.00,-.10,195.20,-19.54,33.10,48.73,13.14
1997,10,1,14,25,775.00,-.04,204.70,-18.44,32.86,49.63,13.14
1997,10,1,14,30,762.00,-.16,199.90,-18.80,32.72,50.03,13.14
1997,10,1,14,35,748.00,-.11,205.70,-17.00,32.80,50.33,13.14
1997,10,1,14,40,756.00,-.14,212.00,-18.72,33.10,48.93,13.14
1997,10,1,14,45,580.40,-.13,224.20,-14.72,32.89,48.91,13.14
1997,10,1,14,50,749.00,-.11,220.00,-18.91,32.91,48.98,13.14
1997,10,1,14,55,695.60,-.17,187.80,-18.99,33.10,48.61,13.14
1997,10,1,15,0,676.10,-.13,170.20,-20.25,32.91,48.45,13.14
1997,10,1,15,5,674.60,-.11,198.20,-19.40,33.04,48.33,13.14
1997,10,1,15,10,690.60,-.11,251.90,-19.81,32.89,49.26,13.14
1997,10,1,15,15,385.70,-.16,212.20,-14.35,33.14,49.10,13.14
1997,10,1,15,20,478.80,-.15,189.20,-14.40,32.89,49.78,13.14
1997,10,1,15,25,427.70,-.05,228.40,-10.73,32.65,50.47,13.14
1997,10,1,15,30,175.80,-.13,176.90,.67,32.49,50.72,13.15
1997,10,1,15,35,387.40,-.06,188.90,-12.88,32.30,50.38,13.15
1997,10,1,15,40,505.50,-.10,204.80,-19.69,32.39,50.27,13.15
1997,10,1,15,45,604.30,-.08,223.90,-24.03,32.73,49.58,13.15
1997,10,1,15,50,560.30,-.15,201.70,-23.03,32.84,49.45,13.15
1997,10,1,15,55,387.50,-.12,193.90,-15.08,32.63,50.22,13.15
1997,10,1,16,0,341.00,-.09,177.90,-14.29,32.55,51.79,13.15
1997,10,1,16,5,192.30,-.03,149.80,-7.81,32.18,52.81,13.16
1997,10,1,16,10,197.10,-.01,141.50,-9.52,31.97,53.21,13.16
1997,10,1,16,15,414.50,-.04,146.20,-18.63,32.10,53.37,13.16
1997,10,1,16,20,287.60,-.09,139.40,-16.47,32.09,54.12,13.16
1997,10,1,16,25,290.00,-.08,121.30,-15.54,31.77,54.62,13.16
1997,10,1,16,30,343.90,-.03,120.70,-19.27,31.79,55.21,13.17
1997,10,1,16,35,363.00,-.09,156.50,-19.60,31.86,55.03,13.17
1997,10,1,16,40,206.50,-.07,131.60,-12.62,31.77,55.95,13.17
1997,10,1,16,45,84.50,-.04,85.60,-1.40,31.50,56.48,13.17
1997,10,1,16,50,80.10,-.03,75.70,-1.46,31.28,56.38,13.17
1997,10,1,16,55,89.10,-.02,85.80,-2.79,30.98,57.00,13.18
1997,10,1,17,0,218.20,-.04,91.80,-15.94,31.08,56.89,13.18
1997,10,1,17,5,203.20,-.07,90.20,-17.64,31.26,56.40,13.18
1997,10,1,17,10,146.00,-.10,106.20,-8.46,31.00,57.18,13.18
1997,10,1,17,15,77.90,-.11,74.30,-4.20,30.92,56.88,13.19
1997,10,1,17,20,87.60,-.07,63.35,-5.89,30.66,57.29,13.19
1997,10,1,17,25,129.80,-.08,66.83,-12.09,30.70,57.13,13.19
1997,10,1,17,30,95.40,-.12,56.09,-9.89,30.59,57.34,13.20
1997,10,1,17,35,66.76,-.18,46.72,-6.47,30.49,57.07,13.20
1997,10,1,17,40,68.88,-.17,40.52,-7.78,30.34,57.89,13.20
1997,10,1,17,45,59.75,-.14,33.99,-8.97,30.23,58.18,13.20
1997,10,1,17,50,45.77,-.15,27.48,-7.66,30.14,58.02,13.21
1997,10,1,17,55,30.86,-.18,20.06,-5.66,29.98,58.83,13.21
1997,10,1,18,0,21.94,-.17,14.80,-4.81,29.87,59.41,13.21
1997,10,1,18,5,12.06,-.21,8.47,-3.30,29.75,59.41,13.21
1997,10,1,18,10,3.48,-.22,3.02,-1.19,29.64,60.21,13.22
1997,10,1,18,15,-4.65,-.20,-2.55,.50,29.45,61.20,13.22
1997,10,1,18,20,-5.70,-.26,-6.74,.64,29.34,62.00,13.23
1997,10,1,18,25,-10.24,-.22,-9.84,.71,29.24,62.48,13.23
1997,10,1,18,30,-12.47,-.25,-12.68,.89,29.09,62.61,13.23
1997,10,1,18,35,-15.02,-.23,-14.56,.96,28.94,62.31,13.24
1997,10,1,18,40,-16.97,-.25,-15.36,.87,28.83,63.32,13.24
1997,10,1,18,45,-16.07,-.25,-15.76,.85,28.70,64.60,13.25
1997,10,1,18,50,-15.84,-.27,-15.71,.83,28.59,65.15,13.25
1997,10,1,18,55,-17.73,-.23,-15.77,.79,28.47,65.89,13.25
1997,10,1,19,0,-15.71,-.26,-15.57,.74,28.37,66.84,13.26
1997,10,1,19,5,-16.41,-.27,-15.56,.70,28.26,67.54,13.26
1997,10,1,19,10,-16.06,-.28,-15.33,.68,28.17,68.13,13.27
1997,10,1,19,15,-16.14,-.33,-15.23,.68,28.07,68.85,13.27
1997,10,1,19,20,-16.66,-.29,-14.90,.66,27.98,69.71,13.27
1997,10,1,19,25,-15.43,-.33,-14.95,.70,27.87,70.60,13.28
1997,10,1,19,30,-16.03,-.31,-14.87,.66,27.78,71.30,13.28
1997,10,1,19,35,-15.49,-.30,-14.94,.61,27.70,71.80,13.28
1997,10,1,19,40,-15.21,-.33,-15.16,.60,27.61,72.30,13.29
1997,10,1,19,45,-15.59,-.35,-15.11,.58,27.52,72.80,13.29
1997,10,1,19,50,-15.75,-.34,-14.93,.51,27.45,73.00,13.29
1997,10,1,19,55,-14.47,-.36,-14.92,.52,27.37,73.40,13.29
1997,10,1,20,0,-15.91,-.36,-14.78,.55,27.28,73.80,13.30
1997,10,1,20,5,-15.99,-.35,-15.00,.54,27.19,73.80,13.30
1997,10,1,20,10,-14.72,-.34,-14.97,.52,27.11,73.80,13.30
1997,10,1,20,15,-16.63,-.38,-14.77,.54,27.01,74.00,13.31
1997,10,1,20,20,-15.04,-.38,-14.25,.50,26.94,74.00,13.31
1997,10,1,20,25,-15.07,-.38,-14.77,.51,26.85,74.10,13.31
1997,10,1,20,30,-15.43,-.41,-14.21,.47,26.79,74.20,13.31
1997,10,1,20,35,-15.01,-.39,-14.30,.45,26.73,74.40,13.32
1997,10,1,20,40,-15.27,-.40,-14.07,.41,26.67,74.20,13.32
1997,10,1,20,45,-14.45,-.41,-13.81,.39,26.60,74.40,13.32
1997,10,1,20,50,-15.69,-.37,-13.55,.29,26.53,74.70,13.32
1997,10,1,20,55,-14.69,-.39,-13.28,.17,26.48,74.80,13.33
1997,10,1,21,0,-14.86,-.39,-13.47,.28,26.41,75.00,13.33
1997,10,1,21,5,-14.88,-.41,-13.70,.40,26.33,75.40,13.33
1997,10,1,21,10,-14.56,-.38,-14.43,.40,26.26,75.70,13.33
1997,10,1,21,15,-15.77,-.39,-14.46,.39,26.24,76.00,13.33
1997,10,1,21,20,-15.63,-.40,-13.62,.38,26.19,76.10,13.34
1997,10,1,21,25,-15.28,-.41,-13.69,.37,26.12,76.40,13.34
1997,10,1,21,30,-15.49,-.39,-13.69,.41,26.02,76.60,13.34
1997,10,1,21,35,-15.58,-.40,-14.36,.45,25.90,77.20,13.34
1997,10,1,21,40,-15.05,-.38,-13.91,.48,25.79,77.60,13.35
1997,10,1,21,45,-15.95,-.39,-13.78,.44,25.71,77.80,13.35
1997,10,1,21,50,-14.64,-.42,-13.53,.38,25.65,78.10,13.35
1997,10,1,21,55,-13.73,-.37,-12.68,.33,25.59,78.30,13.36
1997,10,1,22,0,-14.50,-.38,-12.27,.22,25.52,78.70,13.36
1997,10,1,22,5,-14.84,-.40,-13.35,.17,25.43,79.00,13.36
1997,10,1,22,10,-13.81,-.40,-13.01,.17,25.34,79.70,13.36
1997,10,1,22,15,-14.97,-.41,-12.99,.22,25.27,79.80,13.36
1997,10,1,22,20,-14.94,-.40,-13.20,.17,25.23,80.20,13.37
1997,10,1,22,25,-14.45,-.35,-13.61,.09,25.21,80.40,13.37
1997,10,1,22,30,-13.83,-.38,-12.05,.15,25.14,80.70,13.37
1997,10,1,22,35,-13.19,-.39,-11.28,.18,25.05,81.20,13.37
1997,10,1,22,40,-12.23,-.29,-11.63,.16,24.95,82.20,13.38
1997,10,1,22,45,-14.37,-.29,-11.50,.15,24.89,82.70,13.38
1997,10,1,22,50,-13.68,-.28,-11.34,.06,24.85,82.90,13.38
1997,10,1,22,55,-13.11,-.30,-11.54,-.06,24.83,83.30,13.38
1997,10,1,23,0,-13.05,-.29,-11.22,-.08,24.77,83.40,13.38
1997,10,1,23,5,-13.04,-.24,-11.02,-.18,24.68,83.90,13.38
1997,10,1,23,10,-13.40,-.21,-11.13,-.21,24.57,84.50,13.39
1997,10,1,23,15,-14.40,-.24,-11.31,-.22,24.45,84.90,13.39
1997,10,1,23,20,-13.57,-.24,-11.53,-.21,24.35,85.30,13.39
1997,10,1,23,25,-16.08,-.35,-12.92,.06,24.18,86.10,13.39
1997,10,1,23,30,-14.33,-.24,-13.26,.20,23.95,87.40,13.40
1997,10,1,23,35,-14.42,-.26,-12.85,.15,23.86,88.00,13.40
1997,10,1,23,40,-14.23,-.23,-12.38,0.00,23.82,88.20,13.40
1997,10,1,23,45,-13.82,-.24,-12.14,-.08,23.80,88.40,13.40
1997,10,1,23,50,-13.61,-.21,-12.51,-.15,23.80,88.80,13.41
1997,10,1,23,55,-13.71,-.22,-11.93,-.21,23.80,88.60,13.41
1997,10,2,0,0,-14.11,-.26,-11.70,-.21,23.76,88.80,13.41
1997,10,2,0,5,-13.70,-.16,-11.18,-.31,23.72,89.10,13.41
1997,10,2,0,10,-12.53,-.20,-11.07,-.34,23.71,89.50,13.41
1997,10,2,0,15,-14.07,-.09,-11.18,-.44,23.71,89.60,13.41
1997,10,2,0,20,-13.60,-.15,-11.03,-.46,23.65,89.40,13.41
1997,10,2,0,25,-13.50,-.13,-11.58,-.36,23.57,89.90,13.41
1997,10,2,0,30,-12.62,-.16,-10.77,-.33,23.51,90.40,13.42
1997,10,2,0,35,-13.12,-.18,-10.34,-.40,23.47,90.60,13.42
1997,10,2,0,40,-11.05,-.18,-10.21,-.45,23.37,90.60,13.42
1997,10,2,0,45,-11.35,-.11,-9.53,-.60,23.31,90.80,13.42
1997,10,2,0,50,-11.63,-.11,-9.33,-.70,23.27,91.10,13.42
1997,10,2,0,55,-11.22,-.10,-9.31,-.74,23.31,91.60,13.42
1997,10,2,1,0,-11.42,-.10,-9.34,-.74,23.34,91.70,13.43
1997,10,2,1,5,-12.10,-.10,-10.05,-.77,23.33,91.70,13.43
1997,10,2,1,10,-12.17,-.11,-10.27,-.77,23.33,91.70,13.43
1997,10,2,1,15,-13.08,-.08,-10.88,-.71,23.30,91.90,13.43
1997,10,2,1,20,-12.40,-.08,-10.59,-.69,23.28,91.90,13.43
1997,10,2,1,25,-13.36,-.04,-10.77,-.72,23.23,92.40,13.43
1997,10,2,1,30,-12.68,-.12,-11.12,-.60,23.14,92.70,13.43
1997,10,2,1,35,-11.40,-.08,-10.22,-.67,23.15,93.00,13.43
1997,10,2,1,40,-13.45,-.12,-10.74,-.62,23.12,92.90,13.43
1997,10,2,1,45,-13.38,-.04,-10.78,-.64,23.07,93.00,13.43
1997,10,2,1,50,-13.27,-.07,-10.94,-.56,23.03,93.40,13.43
1997,10,2,1,55,-12.62,-.03,-10.43,-.57,23.00,93.20,13.43
1997,10,2,2,0,-12.91,-.05,-10.70,-.55,22.94,93.60,13.44
1997,10,2,2,5,-14.11,-.06,-11.34,-.50,22.91,93.50,13.44
1997,10,2,2,10,-14.44,-.05,-11.89,-.41,22.80,93.80,13.44
1997,10,2,2,15,-14.43,-.05,-11.90,-.38,22.76,93.90,13.42
1997,10,2,2,20,-14.76,-.03,-12.10,-.34,22.69,94.20,13.44
1997,10,2,2,25,-14.86,-.03,-12.37,-.30,22.64,94.30,13.44
1997,10,2,2,30,-14.71,-.04,-12.11,-.21,22.56,94.40,13.44
1997,10,2,2,35,-14.44,-.03,-11.42,-.24,22.51,94.70,13.44
1997,10,2,2,40,-13.05,-.04,-11.96,-.28,22.49,95.10,13.44
1997,10,2,2,45,-15.12,.01,-12.72,-.18,22.43,95.20,13.45
1997,10,2,2,50,-14.35,-.03,-12.73,-.14,22.36,95.40,13.45
1997,10,2,2,55,-14.48,.03,-12.51,-.05,22.26,95.60,13.45
1997,10,2,3,0,-15.25,.01,-12.62,-.05,22.12,95.70,13.45
1997,10,2,3,5,-13.99,-.01,-11.74,-.09,22.03,96.00,13.45
1997,10,2,3,10,-13.81,-.04,-11.39,-.19,21.97,96.30,13.45
1997,10,2,3,15,-13.83,-.01,-11.72,-.30,21.96,96.40,13.46
1997,10,2,3,20,-15.10,-.00,-12.66,-.14,21.85,96.60,13.46
1997,10,2,3,25,-14.12,-.01,-12.42,-.20,21.80,96.80,13.46
1997,10,2,3,30,-13.77,-.01,-11.47,-.31,21.75,97.00,13.46
1997,10,2,3,35,-12.72,.01,-11.16,-.47,21.80,97.40,13.46
1997,10,2,3,40,-13.21,.02,-11.25,-.60,21.85,97.20,13.46
1997,10,2,3,45,-12.97,-.01,-11.44,-.65,21.87,97.20,13.47
1997,10,2,3,50,-12.74,-.00,-11.90,-.64,21.89,97.10,13.47
1997,10,2,3,55,-13.93,-.01,-11.42,-.62,21.87,97.10,13.47
1997,10,2,4,0,-12.75,-.00,-11.39,-.57,21.81,97.00,13.47
1997,10,2,4,5,-13.57,.00,-11.72,-.53,21.76,97.30,13.47
1997,10,2,4,10,-13.39,.01,-11.60,-.52,21.74,97.50,13.47
1997,10,2,4,15,-13.39,.01,-11.31,-.54,21.74,97.30,13.47
1997,10,2,4,20,-13.55,.00,-10.90,-.56,21.74,97.50,13.47
1997,10,2,4,25,-13.08,.01,-10.30,-.56,21.73,97.50,13.47
1997,10,2,4,30,-11.98,-.01,-10.14,-.65,21.66,97.60,13.47
1997,10,2,4,35,-12.46,.01,-10.14,-.81,21.76,97.70,13.47
1997,10,2,4,40,-13.23,.00,-10.19,-.93,21.91,97.80,13.47
1997,10,2,4,45,-12.30,.01,-10.31,-.95,21.94,97.30,13.47
1997,10,2,4,50,-13.21,.01,-10.59,-.90,21.90,97.30,13.47
1997,10,2,4,55,-12.79,.01,-11.14,-.83,21.87,97.40,13.47
1997,10,2,5,0,-12.59,.01,-11.16,-.80,21.89,97.40,13.48
1997,10,2,5,5,-13.87,.01,-11.35,-.76,21.87,97.20,13.48
1997,10,2,5,10,-13.97,.00,-11.35,-.64,21.81,97.10,13.48
1997,10,2,5,15,-12.64,.02,-9.89,-.57,21.72,97.20,13.48
1997,10,2,5,20,-12.43,.01,-9.79,-.59,21.70,97.50,13.48
1997,10,2,5,25,-12.06,0.00,-9.95,-.63,21.75,97.70,13.48
1997,10,2,5,30,-11.45,.01,-9.67,-.59,21.74,97.50,13.48
1997,10,2,5,35,-12.27,.02,-9.81,-.56,21.69,97.40,13.48
1997,10,2,5,40,-14.06,-.01,-11.06,-.52,21.64,97.60,13.47
1997,10,2,5,45,-13.38,.00,-11.52,-.51,21.59,97.60,13.47
1997,10,2,5,50,-13.80,-.01,-11.64,-.44,21.51,97.70,13.48
1997,10,2,5,55,-12.67,.01,-10.85,-.45,21.46,97.70,13.48
1997,10,2,6,0,-12.88,.03,-10.46,-.42,21.41,97.90,13.48
1997,10,2,6,5,-14.02,.01,-11.31,-.43,21.38,98.00,13.48
1997,10,2,6,10,-13.49,.01,-11.58,-.48,21.39,97.90,13.48
1997,10,2,6,15,-13.70,.00,-11.45,-.49,21.37,98.00,13.48
1997,10,2,6,20,-12.92,.01,-11.25,-.48,21.34,97.90,13.48
1997,10,2,6,25,-11.98,.01,-10.61,-.50,21.33,98.30,13.49
1997,10,2,6,30,-10.85,.01,-9.00,-.54,21.32,98.10,13.49
1997,10,2,6,35,-8.45,.03,-6.46,-.58,21.30,98.00,13.49
1997,10,2,6,40,-6.37,-.00,-3.28,-.66,21.26,98.00,13.49
1997,10,2,6,45,-.91,-.00,1.62,-1.77,21.24,98.10,13.49
1997,10,2,6,50,5.42,-.00,7.04,-3.52,21.25,98.40,13.49
1997,10,2,6,55,13.54,-.00,13.55,-5.79,21.29,98.20,13.49
1997,10,2,7,0,21.66,-.01,18.85,-8.71,21.35,98.10,13.49
1997,10,2,7,5,33.11,-.01,25.97,-11.79,21.43,98.10,13.49
1997,10,2,7,10,47.15,-.00,34.44,-14.98,21.55,98.10,13.49
1997,10,2,7,15,61.77,-.02,41.52,-17.50,21.69,97.80,13.48
1997,10,2,7,20,73.90,-.02,48.01,-19.82,21.86,97.60,13.48
1997,10,2,7,25,89.10,-.02,56.84,-21.87,22.03,97.40,13.48
1997,10,2,7,30,101.60,-.03,63.07,-23.88,22.18,96.90,13.47
1997,10,2,7,35,117.60,.00,69.16,-25.27,22.35,96.30,13.47
1997,10,2,7,40,134.10,-.01,73.70,-26.81,22.54,95.90,13.46
1997,10,2,7,45,149.30,.02,78.90,-28.65,22.74,95.50,13.46
1997,10,2,7,50,170.20,.02,86.50,-30.70,23.04,95.00,13.45
1997,10,2,7,55,191.90,.01,95.00,-32.78,23.37,94.00,13.44
1997,10,2,8,0,208.90,.02,99.00,-33.53,23.68,93.00,13.44
1997,10,2,8,5,227.10,.01,104.00,-32.94,23.89,92.00,13.43
1997,10,2,8,10,244.80,.01,106.00,-33.24,24.11,91.50,13.42
1997,10,2,8,15,262.40,-.01,108.50,-34.26,24.41,90.60,13.42
1997,10,2,8,20,281.60,-.09,110.40,-35.67,24.68,89.30,13.41
1997,10,2,8,25,300.30,-.05,115.60,-37.58,24.95,88.60,13.40
1997,10,2,8,30,319.70,-.13,117.80,-39.17,25.33,87.00,13.39
1997,10,2,8,35,338.30,-.21,117.60,-39.32,25.65,85.40,13.38
1997,10,2,8,40,354.50,-.24,117.10,-39.06,25.88,84.60,13.37
1997,10,2,8,45,375.10,-.34,120.20,-39.46,26.32,83.30,13.36
1997,10,2,8,50,393.30,-.36,123.70,-40.21,26.82,81.40,13.35
1997,10,2,8,55,407.90,-.38,128.10,-39.99,27.09,79.60,13.34
1997,10,2,9,0,428.40,-.39,131.90,-39.50,27.31,78.00,13.33
1997,10,2,9,5,444.90,-.39,131.70,-39.19,27.56,76.80,13.32
1997,10,2,9,10,459.60,-.36,133.50,-38.73,27.87,76.00,13.32
1997,10,2,9,15,474.80,-.36,135.10,-38.94,28.11,75.50,13.31
1997,10,2,9,20,487.00,-.34,136.30,-38.24,28.25,72.70,13.30
1997,10,2,9,25,500.90,-.32,147.10,-34.93,28.29,71.40,13.29
1997,10,2,9,30,513.90,-.34,162.60,-33.61,28.55,70.50,13.29
1997,10,2,9,35,523.20,-.29,173.80,-31.42,28.66,67.22,13.28
1997,10,2,9,40,542.10,-.30,188.80,-30.29,28.76,67.28,13.27
1997,10,2,9,45,570.30,-.28,209.50,-30.19,28.91,65.56,13.27
1997,10,2,9,50,390.20,-.30,206.50,-17.09,28.99,64.62,13.26
1997,10,2,9,55,490.00,-.26,231.30,-19.41,29.00,64.78,13.26
1997,10,2,10,0,309.50,-.21,232.20,-8.60,28.92,65.34,13.26
1997,10,2,10,5,563.00,-.22,258.30,-22.25,28.78,65.32,13.26
1997,10,2,10,10,652.50,-.22,326.60,-25.37,29.03,65.28,13.25
1997,10,2,10,15,732.00,-.24,321.30,-29.12,29.36,63.59,13.25
1997,10,2,10,20,290.20,-.22,273.30,-1.53,29.41,62.84,13.24
1997,10,2,10,25,595.80,-.18,323.40,-18.28,29.24,62.78,13.24
1997,10,2,10,30,612.00,-.19,284.50,-23.42,29.38,61.80,13.24
1997,10,2,10,35,623.00,-.24,311.30,-22.06,29.62,61.32,13.23
1997,10,2,10,40,336.40,-.17,285.60,-5.74,29.66,60.53,13.23
1997,10,2,10,45,274.50,-.11,250.10,-1.32,29.39,61.39,13.23